Home   Weather   Öhringen   Past weeks

Flag for Germany Past Weather in Öhringen, Baden-Württemberg, Germany — Yesterday and Last 2 Weeks

Now
25 °F

Cold.


Feels Like: 18 °F
Forecast: 23 / 40 °F
Wind: 6 mph from Northeast

Location: Niederstetten

Current Time: Dec 3, 2016 at 11:01:14 pm

Latest Report: Dec 3, 2016 at 10:20 pm


Visibility: N/A

Pressure: 30.24 "Hg

Humidity: 93%

Dew Point: 23 °F

Location of ÖhringenLocation

Past Weather in Öhringen — Graph

°F

Öhringen Temperature Yesterday

Maximum temperature yesterday: 39 °F (at 2:20 pm)
Minimum temperature yesterday: 30 °F (at 10:20 pm)
Average temperature yesterday: 35 °F

High & Low Weather Summary for the Past Weeks

 TemperatureHumidityPressure
High54 °F (Nov 20, 2:20 pm)100% (Nov 19, 9:20 pm)30.48 "Hg (Nov 19, 9:20 pm)
Low21 °F (Nov 29, 4:20 am)51% (Nov 20, 2:20 pm)29.62 "Hg (Nov 21, 12:20 pm)
Average38 °F84%30.08 "Hg
* Reported Nov 18 9:20 pm — Dec 3 9:20 pm, Öhringen, Weather by CustomWeather, © 2016

Note: Actual official high and low records may vary slightly from our data, if they occured in-between our weather recording intervals... More about our weather records

Advertising

Öhringen Weather History for the Previous 24 Hours

Scroll right to see more
 ConditionsComfort  
Time TempWeatherWind HumidityBarometerVisibility
9:20 pm
Sat, Dec 3
27 °FChilly.6 mph93%30.24 "HgN/A
8:20 pm27 °FFog.6 mph93%30.24 "Hg3 mi
7:20 pm27 °FFog.6 mph100%30.24 "Hg3 mi
6:20 pm27 °FFog.5 mph100%30.24 "Hg4 mi
5:20 pm28 °FFog.5 mph93%30.21 "Hg4 mi
4:20 pm28 °FFog.5 mph93%30.21 "Hg5 mi
3:20 pm30 °FPassing clouds.6 mph86%30.21 "HgN/A
2:20 pm32 °FPassing clouds.8 mph80%30.21 "HgN/A
1:20 pm32 °FPassing clouds.8 mph80%30.21 "HgN/A
12:20 pm30 °FPassing clouds.6 mph93%30.21 "HgN/A
11:20 am28 °FPassing clouds.6 mph100%30.21 "HgN/A
10:20 am28 °FFog.3 mph93%30.21 "Hg4 mi
9:20 am25 °FFog.5 mph93%30.21 "Hg3 mi
8:20 am25 °FFog.5 mph93%30.21 "Hg2 mi
7:20 am25 °FFog.5 mph93%30.18 "Hg6 mi
6:20 am25 °FFog.5 mph93%30.18 "Hg4 mi
5:47 am27 °FFog.3 mph93%30.18 "Hg1 mi
5:20 am27 °FIce fog.5 mph93%30.18 "Hg1 mi
4:20 am27 °FIce fog.5 mph93%30.18 "Hg0 mi
3:20 am27 °FIce fog.5 mph93%30.18 "Hg0 mi
2:20 am28 °FIce fog.5 mph93%30.18 "Hg0 mi
1:20 am28 °FIce fog.5 mph100%30.18 "Hg0 mi
12:20 am30 °FIce fog.2 mph93%30.18 "Hg0 mi
11:20 pm
Fri, Dec 2
32 °FIce fog.6 mph93%30.15 "Hg0 mi
Weather by CustomWeather, © 2016

See weather overviewHow to use our weather pages